Location: Beang
(6.6177°N, 10.9863°W)
Time: 01:09:56
(UTC+00:00)

Delta 168 - Pass Details

Date: 07 June 2020
Orbit: 394 x 2051 km, 25.3° (Epoch: 13 July)

Event Time Altitude Azimuth Distance (km) Brightness Sun altitude
Exits shadow 05:36:38 21° 242° (WSW) 1,013 3.5 -12.5°
Maximum altitude 05:38:44 87° 152° (SSE) 472 2.4 -12.0°
Drops below altitude 10° 05:42:55 10° 65° (ENE) 1,903 7.2 -11.1°
Sets 05:45:41 0° 65° (ENE) 3,043 9.0 -10.5°
